Regional Weather Roundup
Issued by NWS

Home | Current Version | Previous Version | Graphics & Text | Print | Product List | Glossary On
Versions: 1 2 3 4 5 6 7 8 9 10 11 12 13 14 15 16 17 18 19 20 21 22 23 24 25 26 27 28 29 30 31 32 33 34 35 36 37 38 39 40 41 42 43 44 45 46 47 48 49 50
000
ASUS43 KFSD 240102
RWRSD

WEATHER ROUNDUP FOR SOUTH DAKOTA
NATIONAL WEATHER SERVICE SIOUX FALLS SD
700 PM CST MON JAN 23 2017

NOTE: "FAIR" INDICATES FEW OR NO CLOUDS BELOW 12,000 FEET WITH NO
SIGNIFICANT WEATHER AND/OR OBSTRUCTIONS TO VISIBILITY.


SDZ001>005-009-010-012>017-240200-
NORTHWEST AND NORTH CENTRAL SOUTH DAKOTA

CITY           SKY/WX    TMP DP  RH WIND       PRES   REMARKS
BUFFALO          N/A     24  20  84 NE7       29.66R WCI  16
FAITH            N/A     26  24  92 NE10      29.72R WCI  16
MOBRIDGE       LGT SNOW  29  24  82 E10       29.74S WCI  20
$$

SDZ012>016-024>037-041>051-057-063-072>074-240200-
SOUTHWEST AND SOUTH CENTRAL SOUTH DAKOTA

CITY           SKY/WX    TMP DP  RH WIND       PRES   REMARKS
RAPID CTY ARPT CLOUDY    22  20  92 N15       29.69R WCI   9
PIERRE         CLOUDY    29  26  89 E10       29.73R WCI  20
CUSTER         CLOUDY    26  20  77 E5        29.58R WCI  20
ELLSWORTH AFB  CLOUDY    23  22  99 N14       29.68  WCI  10
PHILIP         CLOUDY    28  28 100 NE12      29.71R WCI  18
PINE RIDGE     CLOUDY    28  28 100 NE12      29.64R WCI  18
SPEARFISH      FOG       19  18  93 NW6       29.69R VSB<1/4 WCI  11
WINNER         CLOUDY    32  27  81 SE15      29.69S WCI  22
$$

SDZ004>011-016>023-039-040-240200-
NORTHEAST SOUTH DAKOTA

CITY           SKY/WX    TMP DP  RH WIND       PRES   REMARKS
ABERDEEN       CLOUDY    29  26  89 NE6       29.81F FOG     WCI  23
WATERTOWN      CLOUDY    28  26  92 E5        29.80S WCI  23
BROOKINGS      CLOUDY    30  27  88 E6        29.80S WCI  24
SISSETON         N/A     32  29  88 S6        29.83S WCI  26
$$

SDZ017-020-022-023-036>040-048>070-240200-
SOUTHEAST SOUTH DAKOTA

CITY           SKY/WX    TMP DP  RH WIND       PRES   REMARKS
SIOUX FALLS    CLOUDY    31  29  92 E6        29.81S WCI  25
HURON          CLOUDY    31  29  92 E6        29.79R WCI  25
CHAMBERLAIN    CLOUDY    32  30  92 E15G21    29.73R WCI  22
MITCHELL       CLOUDY    32  29  88 SE12      29.80R WCI  23
YANKTON        CLOUDY    30  27  86 E8        29.79R WCI  23
$$

ABBREVIATIONS USED IN REMARKS
   TC - TEMPERATURE IN CELSIUS
  WCI - WIND CHILL INDEX
   HX - HEAT INDEX
  VSB - VISIBILITY





USA.gov is the U.S. government's official web portal to all federal, state and local government web resources and services.